Flag for Nigeria Weather past 2 weeks in Enugu, Nigeria

Now
79 °F

Drizzle. Partly sunny.


Feels Like: 82 °F
Forecast: 73 / 83 °F
Wind: No wind

Location: Malabo/Fernando Poo

Current Time: Sep 4, 2015 at 4:12:41 PM

Latest Report: Sep 4, 2015 at 3:00 PM


Visibility: 5 mi

Pressure: 29.92 "Hg

Humidity: 89%

Dew point: 75 °F

Location of EnuguLocation

Historic Weather in Enugu — Graph

°F

Enugu temperature yesterday

Maximum temperature yesterday: 84 °F (at 2:00 PM)
Minimum temperature yesterday: 75 °F (at 2:00 AM)
Average temperature yesterday: 78 °F

Past Weeks' High & Low Weather Summary

 TemperatureHumidityPressure
High84 °F (Aug 28, 12:00 PM)94% (Aug 21, 5:00 AM)30.07 "Hg (Aug 21, 5:00 AM)
Low73 °F (Aug 21, 5:00 AM)70% (Aug 28, 1:00 PM)29.86 "Hg (Aug 20, 3:00 PM)
Average77 °F86%29.95 "Hg
* Reported Aug 20 2:00 PM — Sep 4 2:00 PM, Enugu, Weather by CustomWeather, © 2015

Note: Actual official high and low records may vary slightly from our data, if they occured in-between our weather recording intervals... More about our weather records

Advertising

Enugu weather history for previous 24 hours

 ConditionsComfort  
Time TempWeatherWind HumidityBarometerVisibility
2:00 PM
Fri, Sep 4
79 °FPartly sunny.No wind89%29.95 "Hg5 mi
1:00 PM81 °FBroken clouds.No wind79%29.98 "HgN/A
12:00 PM81 °FBroken clouds.7 mph84%29.98 "HgN/A
11:00 AM81 °FBroken clouds.9 mph84%29.98 "HgN/A
9:00 AM81 °FBroken clouds.5 mph79%29.98 "Hg5 mi
8:00 AM77 °FBroken clouds.7 mph89%29.98 "HgN/A
7:00 AM77 °FPartly sunny.3 mph83%29.95 "HgN/A
6:00 AM75 °FPassing clouds.No wind89%29.95 "HgN/A
5:00 AM75 °FPassing clouds.No wind89%29.92 "HgN/A
3:00 AM75 °FPassing clouds.No wind94%29.95 "HgN/A
2:00 AM75 °FPassing clouds.3 mph94%29.95 "HgN/A
12:00 AM75 °FPassing clouds.No wind94%29.98 "HgN/A
11:00 PM
Thu, Sep 3
75 °FPassing clouds.No wind94%30.01 "HgN/A
10:00 PM75 °FPassing clouds.No wind94%30.01 "HgN/A
9:00 PM77 °FPartly cloudy.No wind89%29.98 "HgN/A
5:00 PM81 °FScattered clouds.5 mph79%29.92 "HgN/A
4:00 PM81 °FPassing clouds.10 mph79%29.89 "HgN/A
Weather by CustomWeather, © 2015

See weather overviewHow to use our weather pages